M I D A S
Marine Information and Data Acquisition System
Tripno 2040 of the Zeeleeuw from 2011-02-14 07:40:22 to 2011-02-14 15:44:08
Back to CruiseResearch ActivitiesStationsMapUnderway DataData graphs

EquipmentUnitsComments
TimeDGPSUTC
LatitudeDGPSDM.mWGS84
LongitudeDGPSDM.mWGS84
SpeedMeteo Stationm/sRelative wind speed
DirectionMeteo StationdegRelative wind direction
TemperatureMeteo Stationdeg CelciusAir temperature
PressureMeteo StationPaAtmospheric pressure
HumidityMeteo Station%Relative humidity
Missing or incorrect values are displayed as -999
Metereological data collected by the RV Zeeleeuw from 2011-02-14 07:12:17 to 2011-02-14 15:47:59
                                                                                    Next 1000 lines
Time Latitude Longitude Speed Direction Temperature Pressure Humidity
2011-02-14 07:12:27 51°13.657 2°55.952 -999 15 6.6 100280 52
2011-02-14 07:12:32 51°13.664 2°55.959 -999 7 6.5 100270 52
2011-02-14 07:12:37 51°13.665 2°55.959 -999 4 6.5 100270 52
2011-02-14 07:12:42 51°13.665 2°55.959 -999 19 6.6 100280 52
2011-02-14 07:12:47 51°13.665 2°55.959 -999 5 6.6 100280 52
2011-02-14 07:12:52 51°13.665 2°55.959 -999 14 6.6 100280 52
2011-02-14 07:12:57 51°13.665 2°55.96 -999 8 6.6 100280 52
2011-02-14 07:13:02 51°13.665 2°55.96 -999 19 6.5 100280 52
2011-02-14 07:13:07 51°13.665 2°55.96 -999 18 6.5 100280 52
2011-02-14 07:13:12 51°13.665 2°55.961 -999 14 6.6 100280 52
2011-02-14 07:13:17 51°13.665 2°55.959 -999 14 6.6 100280 52
2011-02-14 07:13:22 51°13.665 2°55.959 -999 14 6.6 100280 52
2011-02-14 07:13:27 51°13.664 2°55.959 -999 14 6.6 100280 52
2011-02-14 07:13:32 51°13.664 2°55.959 -999 14 6.6 100280 52
2011-02-14 07:13:37 51°13.664 2°55.959 -999 14 6.6 100280 52
2011-02-14 07:13:42 51°13.664 2°55.959 -999 -999 -999 -999 -999
2011-02-14 07:13:47 51°13.664 2°55.959 -999 -999 -999 -999 -999
2011-02-14 07:13:52 51°13.663 2°55.958 -999 -999 -999 -999 -999
2011-02-14 07:13:57 51°13.663 2°55.958 -999 352 -999 -999 -999
2011-02-14 07:14:02 51°13.662 2°55.958 -999 2 -999 -999 -999
2011-02-14 07:14:07 51°13.662 2°55.958 -999 11 -999 -999 -999
2011-02-14 07:14:12 51°13.662 2°55.958 -999 14 -999 -999 -999
2011-02-14 07:14:17 51°13.662 2°55.958 1.9 20 -999 -999 -999
2011-02-14 07:14:22 51°13.662 2°55.958 2.6 14 6.6 -999 39
2011-02-14 07:14:27 51°13.662 2°55.958 0.9 15 6.6 -999 39
2011-02-14 07:14:32 51°13.662 2°55.958 1.5 8 6.5 -999 53
2011-02-14 07:14:37 51°13.662 2°55.958 1.6 9 6.5 -999 53
2011-02-14 07:14:41 51°13.662 2°55.958 0.5 19 6.5 100280 52
2011-02-14 07:14:47 51°13.662 2°55.958 0.3 22 6.5 100280 52
2011-02-14 07:14:52 51°13.662 2°55.957 0.2 18 6.5 100280 52
2011-02-14 07:14:56 51°13.662 2°55.958 0.9 14 6.5 100280 52
2011-02-14 07:15:01 51°13.662 2°55.958 0.4 7 6.5 100280 52
2011-02-14 07:15:06 51°13.662 2°55.957 0.1 15 6.5 100280 52
2011-02-14 07:15:11 51°13.662 2°55.957 0.1 18 6.5 100280 52
2011-02-14 07:15:16 51°13.662 2°55.957 -999 15 6.5 100280 52
2011-02-14 07:15:20 51°13.662 2°55.957 -999 15 6.5 100280 52
2011-02-14 07:15:25 51°13.662 2°55.957 -999 21 6.5 100280 52
2011-02-14 07:15:30 51°13.662 2°55.957 -999 11 6.5 100280 52
2011-02-14 07:15:35 51°13.662 2°55.957 -999 13 6.5 100280 52
2011-02-14 07:15:40 51°13.662 2°55.956 -999 9 6.5 100280 52
2011-02-14 07:15:44 51°13.662 2°55.957 -999 4 6.5 100280 52
2011-02-14 07:15:49 51°13.662 2°55.957 -999 9 6.5 100280 52
2011-02-14 07:15:55 51°13.662 2°55.957 -999 351 6.5 100280 52
2011-02-14 07:15:59 51°13.662 2°55.957 -999 359 6.5 100280 52
2011-02-14 07:16:04 51°13.662 2°55.956 -999 359 6.5 100280 52
2011-02-14 07:16:08 51°13.662 2°55.956 -999 14 6.5 100280 51
2011-02-14 07:16:14 51°13.662 2°55.957 -999 7 6.5 100280 51
2011-02-14 07:16:19 51°13.662 2°55.957 -999 14 6.5 100280 52
2011-02-14 07:16:24 51°13.662 2°55.957 -999 10 6.5 100280 52
2011-02-14 07:16:28 51°13.662 2°55.957 -999 16 6.5 100280 52
2011-02-14 07:16:34 51°13.662 2°55.958 -999 22 6.5 100280 52
2011-02-14 07:16:38 51°13.662 2°55.958 -999 6 6.5 100290 52
2011-02-14 07:16:44 51°13.662 2°55.958 -999 1 6.5 100290 52
2011-02-14 07:16:48 51°13.662 2°55.958 -999 353 6.5 100290 52
2011-02-14 07:16:54 51°13.662 2°55.957 -999 18 6.5 100290 52
2011-02-14 07:16:59 51°13.662 2°55.957 -999 9 6.5 100290 52
2011-02-14 07:17:04 51°13.662 2°55.957 0.3 10 6.5 100290 52
2011-02-14 07:17:10 51°13.662 2°55.957 0.6 9 6.6 100290 52
2011-02-14 07:17:16 51°13.663 2°55.958 0.7 16 6.6 100290 52
2011-02-14 07:17:21 51°13.663 2°55.958 0.5 11 6.5 100290 52
2011-02-14 07:17:26 51°13.663 2°55.958 0.1 11 6.5 100290 52
2011-02-14 07:17:31 51°13.663 2°55.957 0.1 358 6.5 100290 52
2011-02-14 07:17:36 51°13.663 2°55.958 0.2 353 6.5 100290 52
2011-02-14 07:17:40 51°13.663 2°55.958 0.1 359 6.5 100290 52
2011-02-14 07:17:45 51°13.663 2°55.957 -999 23 6.5 100290 52
2011-02-14 07:17:51 51°13.663 2°55.957 -999 13 6.5 100290 52
2011-02-14 07:17:56 51°13.663 2°55.957 -999 4 6.5 100290 52
2011-02-14 07:18:00 51°13.663 2°55.957 -999 5 6.5 100290 52
2011-02-14 07:18:06 51°13.663 2°55.957 -999 12 6.5 100290 52
2011-02-14 07:18:12 51°13.663 2°55.957 -999 10 6.5 100290 52
2011-02-14 07:18:17 51°13.663 2°55.957 -999 13 6.5 100290 52
2011-02-14 07:18:22 51°13.663 2°55.957 -999 18 6.5 100290 52
2011-02-14 07:18:27 51°13.663 2°55.957 -999 8 6.5 100290 52
2011-02-14 07:18:32 51°13.663 2°55.957 -999 10 6.5 100290 52
2011-02-14 07:18:36 51°13.663 2°55.957 -999 14 6.5 100290 52
2011-02-14 07:18:41 51°13.663 2°55.957 -999 13 6.5 100290 52
2011-02-14 07:18:46 51°13.663 2°55.957 -999 23 6.5 100290 52
2011-02-14 07:18:51 51°13.663 2°55.957 -999 4 6.5 100290 51
2011-02-14 07:18:56 51°13.663 2°55.957 -999 22 6.5 100290 51
2011-02-14 07:19:00 51°13.663 2°55.957 -999 14 6.5 100290 52
2011-02-14 07:19:06 51°13.663 2°55.957 -999 11 6.5 100290 52
2011-02-14 07:19:11 51°13.663 2°55.957 -999 16 6.5 100290 52
2011-02-14 07:19:16 51°13.663 2°55.957 -999 4 6.5 100290 52
2011-02-14 07:19:20 51°13.663 2°55.957 -999 28 6.5 100290 52
2011-02-14 07:19:26 51°13.663 2°55.957 -999 17 6.5 100290 52
2011-02-14 07:19:32 51°13.663 2°55.957 -999 16 6.5 100290 52
2011-02-14 07:19:36 51°13.663 2°55.957 -999 19 6.5 100290 52
2011-02-14 07:19:41 51°13.663 2°55.957 -999 -999 6.5 100290 52
2011-02-14 07:19:47 51°13.663 2°55.957 -999 2 6.5 100290 52
2011-02-14 07:19:52 51°13.663 2°55.957 -999 5 6.5 100290 52
2011-02-14 07:19:57 51°13.663 2°55.957 -999 2 6.5 100290 52
2011-02-14 07:20:01 51°13.663 2°55.957 -999 8 6.5 100290 52
2011-02-14 07:20:06 51°13.663 2°55.957 -999 12 6.5 100290 52
2011-02-14 07:20:11 51°13.662 2°55.957 -999 6 6.5 100290 52
2011-02-14 07:20:16 51°13.662 2°55.957 -999 2 6.5 100290 52
2011-02-14 07:20:21 51°13.662 2°55.957 -999 5 6.5 100290 52
2011-02-14 07:20:26 51°13.662 2°55.957 -999 5 6.5 100290 52
2011-02-14 07:20:31 51°13.662 2°55.957 -999 5 6.5 100300 52
2011-02-14 07:20:36 51°13.663 2°55.958 -999 7 6.5 100300 52
2011-02-14 07:20:40 51°13.662 2°55.958 -999 3 6.5 100300 52
2011-02-14 07:20:45 51°13.662 2°55.957 -999 2 6.5 100300 52
2011-02-14 07:20:51 51°13.662 2°55.957 -999 2 6.5 100300 52
2011-02-14 07:20:56 51°13.662 2°55.958 -999 21 6.5 100300 52
2011-02-14 07:21:01 51°13.662 2°55.958 -999 17 6.5 100300 52
2011-02-14 07:21:07 51°13.662 2°55.958 0.1 10 6.5 100300 52
2011-02-14 07:21:12 51°13.662 2°55.958 0.1 9 6.5 100290 52
2011-02-14 07:21:17 51°13.663 2°55.959 -999 8 6.5 100290 52
2011-02-14 07:21:22 51°13.663 2°55.959 -999 8 6.5 100300 52
2011-02-14 07:21:27 51°13.663 2°55.959 -999 15 6.5 100300 52
2011-02-14 07:21:32 51°13.664 2°55.959 -999 15 6.5 100290 51
2011-02-14 07:21:37 51°13.664 2°55.959 -999 15 6.5 100290 51
2011-02-14 07:21:42 51°13.663 2°55.959 -999 14 6.5 100300 52
2011-02-14 07:21:47 51°13.663 2°55.959 -999 25 6.5 100300 52
2011-02-14 07:21:52 51°13.663 2°55.959 -999 18 6.5 100300 52
2011-02-14 07:21:56 51°13.663 2°55.959 -999 17 6.5 100300 52
2011-02-14 07:22:01 51°13.663 2°55.959 -999 28 6.5 100300 52
2011-02-14 07:22:06 51°13.664 2°55.959 -999 21 6.5 100300 52
2011-02-14 07:22:11 51°13.664 2°55.959 -999 10 6.5 100300 52
2011-02-14 07:22:16 51°13.664 2°55.959 -999 12 6.5 100300 52
2011-02-14 07:22:21 51°13.664 2°55.959 -999 12 6.5 100300 52
2011-02-14 07:22:26 51°13.664 2°55.959 -999 19 6.5 100300 52
2011-02-14 07:22:31 51°13.664 2°55.959 -999 8 6.5 100300 52
2011-02-14 07:22:36 51°13.663 2°55.958 -999 8 6.5 100300 52
2011-02-14 07:22:41 51°13.662 2°55.957 -999 359 6.5 100300 52
2011-02-14 07:22:46 51°13.662 2°55.957 -999 8 6.5 100300 52
2011-02-14 07:22:50 51°13.663 2°55.958 -999 8 6.5 100300 52
2011-02-14 07:22:56 51°13.662 2°55.959 0.1 6 6.5 100300 52
2011-02-14 07:23:00 51°13.663 2°55.959 0.1 4 6.5 100300 52
2011-02-14 07:23:05 51°13.663 2°55.959 -999 15 6.5 100300 52
2011-02-14 07:23:10 51°13.663 2°55.959 1.4 8 6.5 100300 52
2011-02-14 07:23:15 51°13.663 2°55.958 0.2 19 6.5 100300 52
2011-02-14 07:23:20 51°13.662 2°55.958 0.1 13 6.5 100300 52
2011-02-14 07:23:24 51°13.662 2°55.958 0.1 1 6.5 100300 52
2011-02-14 07:23:29 51°13.661 2°55.958 -999 351 6.5 100300 52
2011-02-14 07:23:34 51°13.662 2°55.958 -999 2 6.5 100300 52
2011-02-14 07:23:39 51°13.662 2°55.959 -999 15 6.5 100300 52
2011-02-14 07:23:44 51°13.662 2°55.958 -999 355 6.5 100300 52
2011-02-14 07:23:48 51°13.662 2°55.959 -999 356 6.5 100300 52
2011-02-14 07:23:53 51°13.662 2°55.959 -999 11 6.5 100300 52
2011-02-14 07:23:59 51°13.662 2°55.959 -999 14 6.5 100300 52
2011-02-14 07:24:04 51°13.662 2°55.958 -999 353 6.5 100300 52
2011-02-14 07:24:08 51°13.662 2°55.958 -999 1 6.5 100300 51
2011-02-14 07:24:14 51°13.662 2°55.959 -999 4 6.5 100300 51
2011-02-14 07:24:19 51°13.662 2°55.959 -999 7 6.5 100300 52
2011-02-14 07:24:24 51°13.662 2°55.958 -999 19 6.5 100300 52
2011-02-14 07:24:28 51°13.662 2°55.959 -999 28 6.5 100300 52
2011-02-14 07:24:33 51°13.663 2°55.959 -999 347 6.5 100300 52
2011-02-14 07:24:39 51°13.664 2°55.959 -999 1 6.5 100300 52
2011-02-14 07:24:44 51°13.664 2°55.959 -999 351 6.5 100300 52
2011-02-14 07:24:48 51°13.664 2°55.959 -999 352 6.5 100300 52
2011-02-14 07:24:54 51°13.665 2°55.959 -999 356 6.5 100300 52
2011-02-14 07:24:59 51°13.666 2°55.96 -999 354 6.5 100300 52
2011-02-14 07:25:04 51°13.666 2°55.961 -999 352 6.5 100300 52
2011-02-14 07:25:08 51°13.666 2°55.961 -999 352 6.5 100300 52
2011-02-14 07:25:13 51°13.667 2°55.961 -999 355 6.5 100300 52
2011-02-14 07:25:18 51°13.667 2°55.962 -999 1 6.5 100300 52
2011-02-14 07:25:24 51°13.667 2°55.961 0.1 357 6.5 100300 52
2011-02-14 07:25:28 51°13.666 2°55.961 0.1 3 6.5 100300 52
2011-02-14 07:25:33 51°13.665 2°55.96 -999 7 6.5 100300 52
2011-02-14 07:25:38 51°13.664 2°55.96 -999 15 6.5 100300 52
2011-02-14 07:25:44 51°13.664 2°55.959 0.1 9 6.5 100300 52
2011-02-14 07:25:48 51°13.664 2°55.959 0.1 12 6.5 100300 52
2011-02-14 07:25:54 51°13.664 2°55.959 -999 8 6.5 100300 52
2011-02-14 07:25:58 51°13.664 2°55.959 -999 17 6.5 100300 52
2011-02-14 07:26:04 51°13.664 2°55.958 0.1 9 6.5 100300 52
2011-02-14 07:26:08 51°13.664 2°55.958 0.1 8 6.5 100300 52
2011-02-14 07:26:14 51°13.664 2°55.958 0.1 5 6.5 100300 52
2011-02-14 07:26:19 51°13.663 2°55.958 0.1 7 6.5 100300 52
2011-02-14 07:26:24 51°13.663 2°55.957 1 12 6.5 100300 52
2011-02-14 07:26:28 51°13.662 2°55.958 0.7 6 6.5 100300 52
2011-02-14 07:26:34 51°13.662 2°55.958 1.2 13 6.5 100300 52
2011-02-14 07:26:39 51°13.662 2°55.957 0.8 4 6.6 100300 52
2011-02-14 07:26:44 51°13.662 2°55.958 0.5 4 6.6 100300 52
2011-02-14 07:26:48 51°13.662 2°55.958 0.2 14 6.5 100300 52
2011-02-14 07:26:54 51°13.661 2°55.957 0.3 11 6.5 100300 52
2011-02-14 07:26:59 51°13.662 2°55.958 0.2 12 6.5 100300 52
2011-02-14 07:27:04 51°13.662 2°55.958 0.1 1 6.5 100300 52
2011-02-14 07:27:08 51°13.662 2°55.959 0.1 357 6.5 100300 52
2011-02-14 07:27:14 51°13.662 2°55.959 -999 3 6.5 100300 52
2011-02-14 07:27:19 51°13.662 2°55.959 -999 13 6.5 100300 52
2011-02-14 07:27:24 51°13.663 2°55.96 0.1 19 6.5 100300 52
2011-02-14 07:27:28 51°13.663 2°55.96 1.9 13 6.5 100300 52
2011-02-14 07:27:33 51°13.663 2°55.96 1.2 19 6.5 100300 52
2011-02-14 07:27:39 51°13.663 2°55.96 0.7 19 6.5 100300 52
2011-02-14 07:27:44 51°13.663 2°55.96 0.1 11 6.5 100300 52
2011-02-14 07:27:48 51°13.663 2°55.96 0.1 350 6.5 100300 52
2011-02-14 07:27:54 51°13.663 2°55.96 -999 3 6.5 100300 52
2011-02-14 07:27:59 51°13.663 2°55.96 -999 11 6.5 100300 52
2011-02-14 07:28:04 51°13.663 2°55.96 -999 14 6.5 100300 52
2011-02-14 07:28:08 51°13.663 2°55.96 -999 11 6.5 100300 52
2011-02-14 07:28:13 51°13.663 2°55.96 -999 8 6.5 100300 52
2011-02-14 07:28:19 51°13.662 2°55.96 0.1 14 6.5 100310 52
2011-02-14 07:28:24 51°13.663 2°55.96 2.2 17 6.5 100310 52
2011-02-14 07:28:28 51°13.663 2°55.96 2.2 11 6.5 100300 52
2011-02-14 07:28:33 51°13.663 2°55.96 2.3 14 6.5 100300 52
2011-02-14 07:28:39 51°13.663 2°55.96 1.7 15 6.5 100310 52
2011-02-14 07:28:44 51°13.664 2°55.961 0.6 3 6.5 100310 52
2011-02-14 07:28:48 51°13.664 2°55.961 0.3 13 6.5 100300 52
2011-02-14 07:28:54 51°13.664 2°55.961 0.1 9 6.5 100300 52
2011-02-14 07:28:58 51°13.664 2°55.961 0.1 14 6.5 100310 53
2011-02-14 07:29:04 51°13.664 2°55.961 -999 10 6.5 100310 53
2011-02-14 07:29:08 51°13.664 2°55.96 -999 10 6.5 100310 52
2011-02-14 07:29:14 51°13.663 2°55.96 -999 2 6.5 100310 52
2011-02-14 07:29:19 51°13.663 2°55.96 -999 8 6.5 100310 52
2011-02-14 07:29:24 51°13.663 2°55.96 -999 8 6.5 100310 52
2011-02-14 07:29:28 51°13.663 2°55.96 -999 16 6.5 100310 51
2011-02-14 07:29:34 51°13.663 2°55.96 0.1 353 6.5 100310 51
2011-02-14 07:29:39 51°13.663 2°55.96 0.1 360 6.5 100310 52
2011-02-14 07:29:44 51°13.663 2°55.96 0.1 18 6.5 100310 52
2011-02-14 07:29:48 51°13.662 2°55.96 0.2 11 6.5 100310 52
2011-02-14 07:29:53 51°13.662 2°55.96 0.1 20 6.5 100310 52
2011-02-14 07:29:59 51°13.663 2°55.96 2.4 9 6.5 100310 52
2011-02-14 07:30:04 51°13.663 2°55.96 1.7 12 6.5 100310 52
2011-02-14 07:30:08 51°13.663 2°55.96 0.8 13 6.5 100310 52
2011-02-14 07:30:13 51°13.663 2°55.96 0.1 1 6.5 100310 52
2011-02-14 07:30:18 51°13.663 2°55.96 0.5 359 6.5 100310 51
2011-02-14 07:30:24 51°13.663 2°55.96 0.1 1 6.5 100310 51
2011-02-14 07:30:28 51°13.663 2°55.96 0.1 5 6.5 100310 52
2011-02-14 07:30:33 51°13.663 2°55.96 -999 7 6.5 100310 52
2011-02-14 07:30:39 51°13.663 2°55.96 -999 13 6.5 100310 52
2011-02-14 07:30:44 51°13.663 2°55.96 -999 17 6.5 100310 52
2011-02-14 07:30:48 51°13.663 2°55.96 -999 8 6.5 100310 52
2011-02-14 07:30:54 51°13.663 2°55.96 -999 10 6.5 100310 52
2011-02-14 07:30:59 51°13.663 2°55.96 -999 360 6.5 100310 52
2011-02-14 07:31:04 51°13.663 2°55.961 -999 353 6.5 100310 52
2011-02-14 07:31:08 51°13.663 2°55.961 -999 358 6.5 100310 52
2011-02-14 07:31:14 51°13.663 2°55.961 -999 359 6.5 100310 52
2011-02-14 07:31:19 51°13.663 2°55.961 -999 5 6.5 100310 52
2011-02-14 07:31:24 51°13.663 2°55.96 1.2 14 6.5 100310 52
2011-02-14 07:31:28 51°13.663 2°55.96 0.3 22 6.5 100310 52
2011-02-14 07:31:34 51°13.663 2°55.961 0.1 4 6.5 100310 52
2011-02-14 07:31:39 51°13.663 2°55.96 0.1 12 6.5 100310 51
2011-02-14 07:31:44 51°13.663 2°55.96 0.1 3 6.5 100310 51
2011-02-14 07:31:48 51°13.663 2°55.96 0.2 7 6.5 100310 52
2011-02-14 07:31:53 51°13.663 2°55.96 0.1 3 6.5 100310 52
2011-02-14 07:31:59 51°13.664 2°55.961 0.1 15 6.5 100310 52
2011-02-14 07:32:04 51°13.664 2°55.96 -999 12 6.5 100310 52
2011-02-14 07:32:08 51°13.664 2°55.96 -999 23 6.5 100310 51
2011-02-14 07:32:13 51°13.664 2°55.961 -999 21 6.5 100310 51
2011-02-14 07:32:18 51°13.664 2°55.961 -999 22 6.5 100310 52
2011-02-14 07:32:24 51°13.664 2°55.961 -999 19 6.5 100310 52
2011-02-14 07:32:28 51°13.664 2°55.961 -999 14 6.6 100310 52
2011-02-14 07:32:33 51°13.664 2°55.961 -999 20 6.6 100310 52
2011-02-14 07:32:38 51°13.664 2°55.961 -999 15 6.5 100310 52
2011-02-14 07:32:44 51°13.664 2°55.961 -999 2 6.5 100310 52
2011-02-14 07:32:48 51°13.664 2°55.961 -999 360 6.5 100310 52
2011-02-14 07:32:54 51°13.664 2°55.961 -999 2 6.5 100310 52
2011-02-14 07:32:59 51°13.664 2°55.961 -999 7 6.5 100310 52
2011-02-14 07:33:04 51°13.664 2°55.96 -999 11 6.5 100310 52
2011-02-14 07:33:08 51°13.663 2°55.96 -999 8 6.5 100310 52
2011-02-14 07:33:14 51°13.663 2°55.961 -999 14 6.5 100310 52
2011-02-14 07:33:19 51°13.663 2°55.961 -999 359 6.5 100310 52
2011-02-14 07:33:24 51°13.663 2°55.961 -999 17 6.5 100310 52
2011-02-14 07:33:28 51°13.663 2°55.961 -999 27 6.5 100310 52
2011-02-14 07:33:34 51°13.664 2°55.96 0.1 356 6.5 100310 52
2011-02-14 07:33:40 51°13.663 2°55.96 0.1 6 6.5 100310 52
2011-02-14 07:33:44 51°13.663 2°55.96 -999 16 6.5 100310 52
2011-02-14 07:33:49 51°13.663 2°55.96 -999 2 6.5 100310 52
2011-02-14 07:33:54 51°13.663 2°55.96 1.3 8 6.5 100310 52
2011-02-14 07:33:59 51°13.663 2°55.961 0.8 11 6.5 100310 52
2011-02-14 07:34:04 51°13.663 2°55.961 0.1 15 6.5 100310 52
2011-02-14 07:34:08 51°13.663 2°55.961 0.1 1 6.5 100310 52
2011-02-14 07:34:13 51°13.663 2°55.961 1.1 360 6.5 100310 52
2011-02-14 07:34:18 51°13.663 2°55.961 1.7 4 6.5 100310 52
2011-02-14 07:34:24 51°13.663 2°55.961 0.8 -999 6.5 100310 52
2011-02-14 07:34:29 51°13.663 2°55.96 0.2 16 6.5 100310 52
2011-02-14 07:34:35 51°13.663 2°55.96 0.1 10 6.5 100310 52
2011-02-14 07:34:40 51°13.663 2°55.96 -999 24 6.5 100320 52
2011-02-14 07:34:46 51°13.663 2°55.96 0.1 1 6.5 100320 52
2011-02-14 07:34:51 51°13.663 2°55.96 0.1 359 6.5 100310 52
2011-02-14 07:34:56 51°13.663 2°55.96 0.1 14 6.5 100310 52
2011-02-14 07:35:00 51°13.663 2°55.96 0.1 7 6.5 100320 52
2011-02-14 07:35:06 51°13.663 2°55.96 -999 356 6.5 100320 52
2011-02-14 07:35:11 51°13.663 2°55.96 -999 21 6.5 100310 52
2011-02-14 07:35:16 51°13.663 2°55.961 -999 8 6.5 100310 52
2011-02-14 07:35:21 51°13.663 2°55.961 0.1 16 6.5 100310 52
2011-02-14 07:35:26 51°13.663 2°55.961 0.1 11 6.5 100310 52
2011-02-14 07:35:32 51°13.663 2°55.961 2.8 7 6.5 100320 52
2011-02-14 07:35:37 51°13.663 2°55.961 2.2 12 6.5 100320 52
2011-02-14 07:35:42 51°13.663 2°55.961 1.2 13 6.5 100310 52
2011-02-14 07:35:47 51°13.662 2°55.961 2.8 10 6.5 100310 52
2011-02-14 07:35:52 51°13.662 2°55.961 2.3 17 6.5 100310 52
2011-02-14 07:35:57 51°13.662 2°55.96 2.2 22 6.5 100310 52
2011-02-14 07:36:02 51°13.662 2°55.961 2 16 6.5 100310 51
2011-02-14 07:36:07 51°13.662 2°55.961 2.1 15 6.5 100310 51
2011-02-14 07:36:12 51°13.662 2°55.961 1.5 20 6.5 100310 51
2011-02-14 07:36:16 51°13.662 2°55.961 1.1 23 6.5 100310 51
2011-02-14 07:36:22 51°13.662 2°55.961 0.5 15 6.5 100310 53
2011-02-14 07:36:27 51°13.661 2°55.96 0.1 18 6.5 100310 53
2011-02-14 07:36:32 51°13.662 2°55.96 1 20 6.5 100310 52
2011-02-14 07:36:37 51°13.661 2°55.96 0.2 10 6.5 100310 52
2011-02-14 07:36:42 51°13.661 2°55.96 0.1 19 6.5 100310 52
2011-02-14 07:36:47 51°13.661 2°55.96 -999 25 6.5 100310 52
2011-02-14 07:36:52 51°13.661 2°55.959 -999 25 6.5 100320 52
2011-02-14 07:36:56 51°13.662 2°55.957 -999 22 6.5 100320 52
2011-02-14 07:37:01 51°13.662 2°55.955 1.2 25 6.5 100320 52
2011-02-14 07:37:07 51°13.663 2°55.951 0.5 28 6.5 100320 52
2011-02-14 07:37:11 51°13.664 2°55.948 0.1 20 6.5 100320 52
2011-02-14 07:37:16 51°13.665 2°55.944 0.1 27 6.5 100320 52
2011-02-14 07:37:21 51°13.666 2°55.938 -999 35 6.5 100320 52
2011-02-14 07:37:27 51°13.668 2°55.932 0.1 33 6.5 100320 52
2011-02-14 07:37:32 51°13.669 2°55.926 0.5 25 6.5 100310 51
2011-02-14 07:37:37 51°13.671 2°55.919 0.1 33 6.5 100310 51
2011-02-14 07:37:42 51°13.672 2°55.911 0.1 35 6.5 100320 52
2011-02-14 07:37:47 51°13.674 2°55.903 0.8 39 6.5 100320 52
2011-02-14 07:37:52 51°13.675 2°55.895 1.1 39 6.5 100320 52
2011-02-14 07:37:57 51°13.677 2°55.886 2.4 38 6.5 100320 52
2011-02-14 07:38:02 51°13.678 2°55.876 2 42 6.5 100320 52
2011-02-14 07:38:07 51°13.68 2°55.866 1.2 36 6.5 100320 52
2011-02-14 07:38:12 51°13.681 2°55.856 3 33 6.5 100310 52
2011-02-14 07:38:17 51°13.683 2°55.846 1.7 34 6.5 100310 52
2011-02-14 07:38:22 51°13.684 2°55.837 2.3 34 6.5 100320 53
2011-02-14 07:38:27 51°13.685 2°55.827 0.3 43 6.5 100320 53
2011-02-14 07:38:32 51°13.686 2°55.818 0.2 22 6.5 100320 53
2011-02-14 07:38:37 51°13.687 2°55.81 0.1 40 6.5 100320 53
2011-02-14 07:38:42 51°13.688 2°55.801 0.6 44 6.5 100320 51
2011-02-14 07:38:47 51°13.689 2°55.793 1.3 38 6.5 100320 51
2011-02-14 07:38:52 51°13.689 2°55.785 0.9 41 6.5 100320 52
2011-02-14 07:38:57 51°13.689 2°55.778 0.6 41 6.5 100320 52
2011-02-14 07:39:02 51°13.689 2°55.771 1 37 6.5 100320 52
2011-02-14 07:39:07 51°13.69 2°55.764 0.4 38 6.5 100320 52
2011-02-14 07:39:12 51°13.69 2°55.757 0.4 45 6.5 100320 52
2011-02-14 07:39:17 51°13.69 2°55.751 0.1 41 6.5 100320 52
2011-02-14 07:39:21 51°13.69 2°55.747 0.1 40 6.5 100310 52
2011-02-14 07:39:27 51°13.69 2°55.742 0.1 59 6.5 100310 52
2011-02-14 07:39:32 51°13.69 2°55.74 0.1 40 6.5 100320 52
2011-02-14 07:39:36 51°13.689 2°55.739 2.8 44 6.5 100320 52
2011-02-14 07:39:41 51°13.69 2°55.737 1.9 44 6.5 100320 52
2011-02-14 07:39:46 51°13.69 2°55.736 0.2 38 6.5 100320 52
2011-02-14 07:39:51 51°13.69 2°55.736 1.2 40 6.5 100320 53
2011-02-14 07:39:56 51°13.691 2°55.737 0.2 54 6.5 100320 53
2011-02-14 07:40:00 51°13.692 2°55.737 0.1 45 6.5 100320 52
2011-02-14 07:40:05 51°13.693 2°55.738 0.1 39 6.5 100320 52
2011-02-14 07:40:10 51°13.694 2°55.738 0.1 22 6.5 100320 51
2011-02-14 07:40:15 51°13.695 2°55.739 0.1 54 6.5 100320 51
2011-02-14 07:40:20 51°13.696 2°55.74 -999 23 6.5 100320 52
2011-02-14 07:40:24 51°13.697 2°55.741 -999 54 6.5 100320 52
2011-02-14 07:40:29 51°13.699 2°55.742 -999 23 6.5 100320 52
2011-02-14 07:40:35 51°13.701 2°55.743 -999 54 6.5 100320 52
2011-02-14 07:40:39 51°13.703 2°55.743 -999 23 6.5 100320 52
2011-02-14 07:40:44 51°13.705 2°55.744 -999 11 6.5 100320 52
2011-02-14 07:40:49 51°13.707 2°55.745 -999 265 6.5 100320 52
2011-02-14 07:40:54 51°13.71 2°55.745 -999 306 6.5 100320 52
2011-02-14 07:40:59 51°13.714 2°55.745 -999 254 6.5 100320 52
2011-02-14 07:41:04 51°13.717 2°55.744 -999 265 6.5 100320 52
2011-02-14 07:41:08 51°13.72 2°55.743 -999 262 6.5 100320 52
2011-02-14 07:41:13 51°13.725 2°55.74 0.1 309 6.5 100320 52
2011-02-14 07:41:19 51°13.729 2°55.736 0.1 260 6.5 100320 52
2011-02-14 07:41:24 51°13.734 2°55.732 0.1 306 6.5 100320 52
2011-02-14 07:41:30 51°13.739 2°55.726 -999 252 6.5 100320 52
2011-02-14 07:41:35 51°13.744 2°55.721 -999 306 6.5 100320 52
2011-02-14 07:41:40 51°13.749 2°55.715 -999 254 6.5 100320 52
2011-02-14 07:41:46 51°13.755 2°55.707 -999 306 6.5 100320 52
2011-02-14 07:41:51 51°13.761 2°55.701 -999 252 6.5 100320 52
2011-02-14 07:41:56 51°13.767 2°55.694 -999 306 6.5 100320 52
2011-02-14 07:42:01 51°13.773 2°55.687 -999 248 6.5 100320 52
2011-02-14 07:42:06 51°13.78 2°55.68 -999 306 6.5 100320 52
2011-02-14 07:42:11 51°13.787 2°55.672 -999 23 6.5 100320 52
2011-02-14 07:42:16 51°13.794 2°55.664 -999 303 6.5 100320 52
2011-02-14 07:42:21 51°13.801 2°55.657 -999 24 6.5 100320 52
2011-02-14 07:42:26 51°13.809 2°55.649 -999 306 6.5 100320 52
2011-02-14 07:42:30 51°13.815 2°55.642 -999 317 6.5 100320 52
2011-02-14 07:42:36 51°13.825 2°55.634 0.8 242 6.5 100320 52
2011-02-14 07:42:40 51°13.832 2°55.628 1.1 22 6.6 100320 52
2011-02-14 07:42:45 51°13.841 2°55.62 0.1 306 6.6 100320 52
2011-02-14 07:42:50 51°13.849 2°55.613 0.1 23 6.6 100320 50
2011-02-14 07:42:55 51°13.858 2°55.606 -999 246 6.6 100320 50
2011-02-14 07:43:00 51°13.867 2°55.599 -999 249 6.6 100320 52
2011-02-14 07:43:04 51°13.875 2°55.594 -999 306 6.6 100320 52
2011-02-14 07:43:09 51°13.884 2°55.587 -999 23 6.6 100320 52
2011-02-14 07:43:14 51°13.894 2°55.58 -999 306 6.6 100320 52
2011-02-14 07:43:19 51°13.903 2°55.573 -999 318 6.6 100320 52
2011-02-14 07:43:24 51°13.913 2°55.566 1 311 6.6 100320 52
2011-02-14 07:43:29 51°13.922 2°55.559 0.6 21 6.6 100320 52
2011-02-14 07:43:34 51°13.932 2°55.553 0.1 306 6.6 100320 52
2011-02-14 07:43:38 51°13.94 2°55.547 0.1 26 6.5 100320 52
2011-02-14 07:43:44 51°13.952 2°55.539 1 316 6.5 100320 52
2011-02-14 07:43:48 51°13.96 2°55.533 0.5 21 6.6 100320 52
2011-02-14 07:43:54 51°13.971 2°55.525 0.1 306 6.6 100320 52
2011-02-14 07:43:58 51°13.979 2°55.52 0.9 320 6.6 100320 52
2011-02-14 07:44:04 51°13.991 2°55.512 0.6 309 6.6 100320 52
2011-02-14 07:44:08 51°14 2°55.506 1.1 22 6.6 100320 52
2011-02-14 07:44:14 51°14.012 2°55.497 0.1 306 6.6 100320 52
2011-02-14 07:44:18 51°14.021 2°55.492 0.1 23 6.6 100320 52
2011-02-14 07:44:24 51°14.033 2°55.483 -999 306 6.6 100320 52
2011-02-14 07:44:28 51°14.042 2°55.477 1.5 26 6.6 100320 52
2011-02-14 07:44:33 51°14.053 2°55.47 1.5 305 6.6 100320 52
2011-02-14 07:44:39 51°14.066 2°55.461 1.3 315 6.6 100320 52
2011-02-14 07:44:44 51°14.078 2°55.453 0.1 301 6.6 100320 52
2011-02-14 07:44:48 51°14.087 2°55.447 0.1 332 6.6 100320 52
2011-02-14 07:44:54 51°14.101 2°55.437 -999 325 6.6 100320 52
2011-02-14 07:44:58 51°14.11 2°55.431 -999 323 6.6 100320 52
2011-02-14 07:45:04 51°14.124 2°55.421 -999 306 6.6 100320 52
2011-02-14 07:45:08 51°14.133 2°55.414 0.1 316 6.6 100320 52
2011-02-14 07:45:13 51°14.145 2°55.405 0.1 306 6.6 100320 52
2011-02-14 07:45:19 51°14.159 2°55.394 2.1 320 6.6 100320 52
2011-02-14 07:45:24 51°14.171 2°55.384 1.3 37 6.6 100320 52
2011-02-14 07:45:28 51°14.181 2°55.375 1.4 25 6.6 100320 51
2011-02-14 07:45:34 51°14.195 2°55.363 2.5 300 6.6 100320 51
2011-02-14 07:45:39 51°14.207 2°55.352 1.8 25 6.6 100320 52
2011-02-14 07:45:44 51°14.218 2°55.341 0.5 317 6.6 100320 52
2011-02-14 07:45:48 51°14.228 2°55.333 0.4 315 6.6 100320 52
2011-02-14 07:45:54 51°14.243 2°55.32 2.3 310 6.6 100320 52
2011-02-14 07:45:58 51°14.253 2°55.312 2.3 317 6.6 100320 53
2011-02-14 07:46:04 51°14.268 2°55.299 2.4 321 6.6 100320 53
2011-02-14 07:46:08 51°14.278 2°55.291 2.5 316 6.6 100320 54
2011-02-14 07:46:14 51°14.292 2°55.278 2.2 309 6.6 100320 54
2011-02-14 07:46:19 51°14.305 2°55.267 2.9 25 6.7 100320 51
2011-02-14 07:46:24 51°14.317 2°55.256 2.1 303 6.7 100320 51
2011-02-14 07:46:29 51°14.33 2°55.243 2.2 27 6.6 100310 53
2011-02-14 07:46:34 51°14.342 2°55.232 3.1 307 6.6 100310 53
2011-02-14 07:46:39 51°14.354 2°55.219 2 26 6.7 100310 52
2011-02-14 07:46:44 51°14.367 2°55.207 2.5 304 6.7 100310 52
2011-02-14 07:46:48 51°14.376 2°55.197 4 26 6.7 100310 54
2011-02-14 07:46:53 51°14.389 2°55.185 4.3 310 6.7 100310 54
2011-02-14 07:46:59 51°14.403 2°55.17 3.6 19 6.7 100310 52
2011-02-14 07:47:04 51°14.415 2°55.157 2.4 307 6.7 100310 52
2011-02-14 07:47:08 51°14.425 2°55.146 3.2 316 6.7 100310 51
2011-02-14 07:47:14 51°14.44 2°55.131 2.2 309 6.7 100310 51
2011-02-14 07:47:19 51°14.452 2°55.118 3.9 24 6.7 100320 52
2011-02-14 07:47:24 51°14.465 2°55.105 3.3 309 6.7 100320 52
2011-02-14 07:47:28 51°14.474 2°55.095 5.4 24 6.7 100320 52
2011-02-14 07:47:34 51°14.49 2°55.08 4.2 311 6.7 100320 52
2011-02-14 07:47:39 51°14.502 2°55.068 4.2 245 6.7 100310 53
2011-02-14 07:47:44 51°14.515 2°55.055 4.4 309 6.7 100310 53
2011-02-14 07:47:48 51°14.525 2°55.045 4.4 21 6.7 100310 51
2011-02-14 07:47:53 51°14.538 2°55.032 3.3 310 6.7 100310 51
2011-02-14 07:47:59 51°14.554 2°55.017 3.9 23 6.7 100310 52
2011-02-14 07:48:04 51°14.568 2°55.006 4.7 304 6.7 100310 52
2011-02-14 07:48:08 51°14.579 2°54.997 3.8 23 6.7 100310 51
2011-02-14 07:48:13 51°14.593 2°54.987 4.1 240 6.7 100310 51
2011-02-14 07:48:19 51°14.609 2°54.973 5.1 19 6.7 100320 53
2011-02-14 07:48:24 51°14.623 2°54.962 3.3 242 6.7 100320 53
2011-02-14 07:48:28 51°14.634 2°54.953 1.4 20 6.7 100320 53
2011-02-14 07:48:33 51°14.648 2°54.942 1.6 241 6.7 100320 53
2011-02-14 07:48:38 51°14.661 2°54.931 2.3 25 6.7 100310 52
2011-02-14 07:48:44 51°14.678 2°54.916 3.6 237 6.7 100310 52
2011-02-14 07:48:48 51°14.689 2°54.907 1 20 6.7 100310 53
2011-02-14 07:48:54 51°14.705 2°54.893 2 240 6.7 100310 53
2011-02-14 07:48:59 51°14.718 2°54.88 1.3 22 6.7 100320 52
2011-02-14 07:49:04 51°14.732 2°54.866 4.7 244 6.7 100320 52
2011-02-14 07:49:08 51°14.742 2°54.855 4.9 25 6.7 100320 53
2011-02-14 07:49:13 51°14.755 2°54.841 4.4 241 6.7 100320 53
2011-02-14 07:49:19 51°14.771 2°54.823 4.5 26 6.7 100320 52
2011-02-14 07:49:24 51°14.785 2°54.809 4.1 32 6.7 100320 52
2011-02-14 07:49:28 51°14.796 2°54.797 4.4 21 6.7 100310 51
2011-02-14 07:49:33 51°14.81 2°54.782 3.2 32 6.7 100310 51
2011-02-14 07:49:39 51°14.826 2°54.764 3.1 19 6.7 100320 53
2011-02-14 07:49:44 51°14.841 2°54.749 4.2 31 6.7 100320 53
2011-02-14 07:49:48 51°14.852 2°54.737 4.1 26 6.7 100310 53
2011-02-14 07:49:53 51°14.866 2°54.721 4.6 235 6.7 100310 53
2011-02-14 07:49:58 51°14.88 2°54.706 3.3 24 6.7 100310 52
2011-02-14 07:50:04 51°14.898 2°54.687 4.4 236 6.7 100310 52
2011-02-14 07:50:08 51°14.909 2°54.675 4.9 25 6.7 100320 51
2011-02-14 07:50:14 51°14.926 2°54.655 4.2 238 6.7 100320 51
2011-02-14 07:50:18 51°14.938 2°54.642 4.6 25 6.7 100310 51
2011-02-14 07:50:24 51°14.955 2°54.623 4.6 32 6.7 100310 51
2011-02-14 07:50:28 51°14.967 2°54.609 4.2 21 6.7 100310 51
2011-02-14 07:50:33 51°14.982 2°54.592 5 239 6.7 100310 51
2011-02-14 07:50:39 51°14.999 2°54.573 4.4 22 6.7 100310 53
2011-02-14 07:50:44 51°15.014 2°54.555 4.9 241 6.7 100310 53
2011-02-14 07:50:48 51°15.026 2°54.542 5.1 21 6.7 100310 50
2011-02-14 07:50:53 51°15.04 2°54.524 6.2 32 6.7 100310 50
2011-02-14 07:50:59 51°15.058 2°54.504 5 19 6.7 100310 51
2011-02-14 07:51:04 51°15.073 2°54.487 5.3 237 6.7 100310 51
2011-02-14 07:51:08 51°15.085 2°54.474 5.4 27 6.7 100310 53
2011-02-14 07:51:13 51°15.1 2°54.457 4 32 6.7 100310 53
2011-02-14 07:51:18 51°15.116 2°54.441 3.7 27 6.7 100320 53
2011-02-14 07:51:24 51°15.133 2°54.421 5.5 240 6.7 100320 53
2011-02-14 07:51:28 51°15.145 2°54.407 5.5 26 6.7 100310 53
2011-02-14 07:51:34 51°15.163 2°54.387 5.3 237 6.7 100310 53
2011-02-14 07:51:39 51°15.178 2°54.37 6.8 26 6.7 100310 53
2011-02-14 07:51:44 51°15.193 2°54.353 6.1 235 6.7 100310 53
2011-02-14 07:51:48 51°15.204 2°54.338 7.6 27 6.7 100310 51
2011-02-14 07:51:53 51°15.219 2°54.321 4.9 237 6.7 100310 51
2011-02-14 07:51:59 51°15.236 2°54.3 4.7 25 6.7 100310 53
2011-02-14 07:52:04 51°15.251 2°54.282 5.8 237 6.7 100310 53
2011-02-14 07:52:08 51°15.263 2°54.268 4.8 22 6.7 100320 53
2011-02-14 07:52:12 51°15.274 2°54.254 6.4 237 6.7 100320 53
2011-02-14 07:52:18 51°15.292 2°54.234 4.9 27 6.7 100310 52
2011-02-14 07:52:24 51°15.31 2°54.213 4.7 233 6.7 100310 52
2011-02-14 07:52:28 51°15.321 2°54.199 4.6 27 6.7 100310 52
2011-02-14 07:52:34 51°15.339 2°54.178 4.9 31 6.7 100310 52
2011-02-14 07:52:38 51°15.35 2°54.164 5.2 18 6.7 100310 52
2011-02-14 07:52:44 51°15.367 2°54.142 4.4 238 6.7 100310 52
2011-02-14 07:52:48 51°15.379 2°54.127 5.6 20 6.7 100310 52
2011-02-14 07:52:53 51°15.393 2°54.108 5.4 239 6.7 100310 52
2011-02-14 07:52:59 51°15.409 2°54.086 4.8 20 6.7 100310 53
2011-02-14 07:53:04 51°15.423 2°54.067 6.6 237 6.7 100310 53
2011-02-14 07:53:08 51°15.434 2°54.052 5.5 22 6.7 100310 51
2011-02-14 07:53:13 51°15.448 2°54.033 5 36 6.7 100310 51
2011-02-14 07:53:19 51°15.465 2°54.011 4.8 26 6.7 100310 52
2011-02-14 07:53:24 51°15.478 2°53.992 5.8 237 6.7 100310 52
2011-02-14 07:53:28 51°15.489 2°53.977 5.7 27 6.7 100310 50
2011-02-14 07:53:33 51°15.503 2°53.958 4.9 237 6.7 100310 50
2011-02-14 07:53:39 51°15.52 2°53.936 5.4 19 6.7 100310 51
2011-02-14 07:53:44 51°15.534 2°53.918 4.9 31 6.7 100310 51
2011-02-14 07:53:48 51°15.545 2°53.903 6.6 26 6.7 100310 51
2011-02-14 07:53:54 51°15.562 2°53.88 5 238 6.7 100310 51
2011-02-14 07:53:58 51°15.573 2°53.865 6.2 26 6.7 100310 51
2011-02-14 07:54:04 51°15.588 2°53.842 5.5 240 6.7 100310 51
2011-02-14 07:54:08 51°15.599 2°53.826 6.6 27 6.7 100310 52
2011-02-14 07:54:13 51°15.612 2°53.807 5.7 236 6.7 100310 52
2011-02-14 07:54:19 51°15.628 2°53.783 6.6 21 6.7 100310 53
2011-02-14 07:54:24 51°15.641 2°53.763 6.3 238 6.7 100310 53
2011-02-14 07:54:28 51°15.651 2°53.747 5.4 20 6.7 100310 51
2011-02-14 07:54:33 51°15.664 2°53.727 5.3 238 6.7 100310 51
2011-02-14 07:54:39 51°15.68 2°53.704 6.2 20 6.7 100310 51
2011-02-14 07:54:44 51°15.693 2°53.684 5.4 32 6.7 100310 51
2011-02-14 07:54:48 51°15.704 2°53.67 5.1 21 6.7 100310 53
2011-02-14 07:54:53 51°15.718 2°53.65 6.3 238 6.7 100310 53
2011-02-14 07:54:58 51°15.731 2°53.631 4.9 27 6.7 100310 53
2011-02-14 07:55:04 51°15.748 2°53.609 5.4 238 6.7 100310 53
2011-02-14 07:55:08 51°15.759 2°53.595 4.7 19 6.7 100310 51
2011-02-14 07:55:14 51°15.776 2°53.574 5.8 238 6.7 100310 51
2011-02-14 07:55:19 51°15.792 2°53.558 5 21 6.7 100310 51
2011-02-14 07:55:24 51°15.807 2°53.542 4.5 30 6.7 100310 51
2011-02-14 07:55:28 51°15.82 2°53.531 4.1 23 6.7 100310 51
2011-02-14 07:55:33 51°15.836 2°53.517 3.9 30 6.7 100310 51
2011-02-14 07:55:39 51°15.855 2°53.501 4.1 23 6.7 100310 53
2011-02-14 07:55:44 51°15.871 2°53.488 3.9 236 6.7 100310 53
2011-02-14 07:55:48 51°15.885 2°53.478 4.5 28 6.6 100310 51
2011-02-14 07:55:54 51°15.906 2°53.462 4.6 238 6.6 100310 51
2011-02-14 07:55:59 51°15.922 2°53.451 3.8 22 6.7 100320 53
2011-02-14 07:56:04 51°15.938 2°53.438 3.8 236 6.7 100320 53
2011-02-14 07:56:08 51°15.952 2°53.427 3.1 22 6.6 100320 50
2011-02-14 07:56:14 51°15.972 2°53.412 0.2 31 6.6 100320 50
2011-02-14 07:56:18 51°15.985 2°53.402 0.2 21 6.6 100320 51
2011-02-14 07:56:24 51°16.005 2°53.386 4.3 238 6.6 100320 51
2011-02-14 07:56:28 51°16.018 2°53.376 3.8 22 6.6 100310 52
2011-02-14 07:56:32 51°16.032 2°53.366 3.6 236 6.6 100310 52
2011-02-14 07:56:39 51°16.055 2°53.348 3.8 24 6.6 100320 52
2011-02-14 07:56:44 51°16.072 2°53.336 4 237 6.6 100320 52
2011-02-14 07:56:48 51°16.085 2°53.325 4.4 20 6.6 100320 51
2011-02-14 07:56:54 51°16.105 2°53.311 3.4 238 6.6 100320 51
2011-02-14 07:56:59 51°16.122 2°53.298 3.5 25 6.6 100320 53
2011-02-14 07:57:04 51°16.139 2°53.286 4.4 237 6.6 100320 53
2011-02-14 07:57:08 51°16.152 2°53.276 4.5 20 6.6 100320 52
2011-02-14 07:57:13 51°16.169 2°53.262 4 239 6.6 100320 52
2011-02-14 07:57:19 51°16.189 2°53.247 3.9 21 6.6 100320 53
2011-02-14 07:57:24 51°16.205 2°53.235 3.4 236 6.6 100320 53
2011-02-14 07:57:28 51°16.218 2°53.224 4.5 21 6.6 100320 51
2011-02-14 07:57:33 51°16.235 2°53.211 4.8 238 6.6 100320 51
2011-02-14 07:57:39 51°16.255 2°53.196 3.6 20 6.6 100320 52
2011-02-14 07:57:44 51°16.272 2°53.182 3.5 237 6.6 100320 52
2011-02-14 07:57:48 51°16.285 2°53.172 4.1 22 6.6 100320 53
2011-02-14 07:57:53 51°16.301 2°53.159 3.5 30 6.6 100320 53
2011-02-14 07:57:58 51°16.318 2°53.146 3.7 26 6.6 100320 51
2011-02-14 07:58:04 51°16.338 2°53.131 4.1 238 6.6 100320 51
2011-02-14 07:58:08 51°16.352 2°53.122 3.8 27 6.6 100320 53
2011-02-14 07:58:14 51°16.372 2°53.108 3.1 238 6.6 100320 53
2011-02-14 07:58:19 51°16.389 2°53.097 3.6 22 6.6 100320 53
2011-02-14 07:58:24 51°16.407 2°53.086 4.2 243 6.6 100320 53
2011-02-14 07:58:28 51°16.421 2°53.078 3.7 20 6.6 100320 51
2011-02-14 07:58:33 51°16.438 2°53.067 3.6 34 6.6 100320 51
2011-02-14 07:58:39 51°16.459 2°53.055 2.9 22 6.6 100320 53
2011-02-14 07:58:44 51°16.476 2°53.045 2.3 235 6.6 100320 53
2011-02-14 07:58:48 51°16.49 2°53.036 2.3 24 6.6 100320 52
2011-02-14 07:58:52 51°16.505 2°53.028 2.6 31 6.6 100320 52
2011-02-14 07:58:59 51°16.529 2°53.014 2.6 26 6.6 100320 51
2011-02-14 07:59:04 51°16.546 2°53.003 3.1 32 6.6 100320 51
2011-02-14 07:59:08 51°16.56 2°52.995 3.1 24 6.6 100320 52
2011-02-14 07:59:13 51°16.577 2°52.984 2.8 30 6.6 100320 52
2011-02-14 07:59:18 51°16.595 2°52.973 3.5 20 6.6 100320 53
2011-02-14 07:59:24 51°16.615 2°52.96 3.9 30 6.6 100320 53
2011-02-14 07:59:28 51°16.629 2°52.951 3.1 26 6.6 100320 53
2011-02-14 07:59:34 51°16.65 2°52.938 3 236 6.6 100320 53
2011-02-14 07:59:38 51°16.664 2°52.928 2.6 24 6.6 100320 51
2011-02-14 07:59:44 51°16.684 2°52.915 3.5 236 6.6 100320 51
2011-02-14 07:59:48 51°16.698 2°52.906 2.8 22 6.6 100320 53
2011-02-14 07:59:54 51°16.719 2°52.893 2.8 34 6.6 100320 53
2011-02-14 07:59:59 51°16.736 2°52.881 3.7 28 6.6 100320 52
2011-02-14 08:00:04 51°16.753 2°52.869 3.8 31 6.6 100320 52
2011-02-14 08:00:08 51°16.766 2°52.861 3.1 21 6.6 100320 51
2011-02-14 08:00:13 51°16.783 2°52.849 3.1 31 6.6 100320 51
2011-02-14 08:00:19 51°16.804 2°52.836 3.2 23 6.6 100320 51
2011-02-14 08:00:24 51°16.821 2°52.824 3.8 235 6.6 100320 51
2011-02-14 08:00:28 51°16.834 2°52.815 3.1 24 6.6 100320 53
2011-02-14 08:00:33 51°16.851 2°52.803 3.7 34 6.6 100320 53
2011-02-14 08:00:39 51°16.872 2°52.789 3.2 22 6.6 100320 51
2011-02-14 08:00:44 51°16.889 2°52.778 2.9 33 6.6 100320 51
2011-02-14 08:00:48 51°16.903 2°52.77 3.3 22 6.6 100320 51
2011-02-14 08:00:53 51°16.92 2°52.759 2.9 36 6.6 100320 51
2011-02-14 08:00:58 51°16.938 2°52.749 2.4 24 6.6 100320 51
2011-02-14 08:01:04 51°16.959 2°52.736 2.7 234 6.6 100320 51
2011-02-14 08:01:08 51°16.973 2°52.727 2.9 21 6.6 100320 51
2011-02-14 08:01:14 51°16.994 2°52.714 3.1 237 6.6 100320 51
2011-02-14 08:01:19 51°17.011 2°52.703 3.9 22 6.6 100320 51
2011-02-14 08:01:24 51°17.028 2°52.692 2.8 35 6.6 100320 51
2011-02-14 08:01:28 51°17.042 2°52.684 3.3 20 6.6 100330 50
2011-02-14 08:01:33 51°17.061 2°52.677 1.7 233 6.6 100330 50
2011-02-14 08:01:39 51°17.083 2°52.67 1.7 22 6.6 100320 51
2011-02-14 08:01:44 51°17.101 2°52.666 0.6 36 6.6 100320 51
2011-02-14 08:01:48 51°17.116 2°52.663 0.9 24 6.6 100330 51
2011-02-14 08:01:54 51°17.139 2°52.661 0.1 36 6.6 100330 51
2011-02-14 08:01:59 51°17.158 2°52.659 0.5 18 6.6 100330 52
2011-02-14 08:02:03 51°17.173 2°52.658 0.4 34 6.6 100330 52
2011-02-14 08:02:08 51°17.192 2°52.657 0.2 18 6.6 100330 52
2011-02-14 08:02:13 51°17.211 2°52.656 0.7 34 6.6 100330 52
2011-02-14 08:02:18 51°17.23 2°52.655 0.6 22 6.6 100330 52
2011-02-14 08:02:24 51°17.253 2°52.655 0.2 316 6.6 100330 52
2011-02-14 08:02:28 51°17.269 2°52.654 0.2 22 6.6 100330 52
2011-02-14 08:02:34 51°17.291 2°52.653 0.7 317 6.6 100330 52
2011-02-14 08:02:39 51°17.31 2°52.653 0.8 21 6.6 100330 52
2011-02-14 08:02:44 51°17.33 2°52.652 0.9 34 6.6 100330 52
2011-02-14 08:02:48 51°17.345 2°52.651 0.5 23 6.6 100330 52
2011-02-14 08:02:54 51°17.368 2°52.649 0.5 34 6.6 100330 52
2011-02-14 08:02:59 51°17.387 2°52.647 0.2 28 6.6 100330 52
2011-02-14 08:03:04 51°17.406 2°52.645 0.4 32 6.6 100330 52
2011-02-14 08:03:08 51°17.421 2°52.644 0.2 22 6.6 100330 52
2011-02-14 08:03:13 51°17.441 2°52.642 0.3 31 6.6 100330 52
2011-02-14 08:03:19 51°17.464 2°52.641 0.2 20 6.6 100320 52
2011-02-14 08:03:24 51°17.483 2°52.641 0.3 32 6.6 100320 52
2011-02-14 08:03:28 51°17.499 2°52.64 0.6 26 6.6 100320 52
2011-02-14 08:03:33 51°17.518 2°52.64 0.3 34 6.6 100320 52
2011-02-14 08:03:39 51°17.541 2°52.638 0.2 23 6.6 100320 52
2011-02-14 08:03:44 51°17.56 2°52.638 0.2 34 6.6 100320 52
2011-02-14 08:03:48 51°17.576 2°52.637 0.1 318 6.6 100330 52
2011-02-14 08:03:53 51°17.595 2°52.636 0.3 38 6.6 100330 52
2011-02-14 08:03:58 51°17.613 2°52.634 0.9 20 6.6 100330 52
2011-02-14 08:04:04 51°17.636 2°52.633 0.3 34 6.6 100330 52
2011-02-14 08:04:08 51°17.652 2°52.631 0.6 24 6.6 100330 51
2011-02-14 08:04:14 51°17.675 2°52.63 0.1 33 6.6 100330 51
2011-02-14 08:04:19 51°17.694 2°52.629 0.3 27 6.6 100330 52
2011-02-14 08:04:24 51°17.713 2°52.627 0.2 34 6.6 100330 52
2011-02-14 08:04:28 51°17.729 2°52.626 0.1 23 6.6 100330 52
2011-02-14 08:04:33 51°17.748 2°52.624 0.1 30 6.6 100330 52
2011-02-14 08:04:39 51°17.771 2°52.623 0.1 316 6.6 100330 52
2011-02-14 08:04:44 51°17.79 2°52.62 0.1 35 6.6 100330 52
2011-02-14 08:04:48 51°17.805 2°52.62 0.1 23 6.7 100320 52
2011-02-14 08:04:54 51°17.828 2°52.617 0.1 234 6.7 100320 52
2011-02-14 08:04:59 51°17.847 2°52.616 0.1 19 6.6 100320 52
2011-02-14 08:05:04 51°17.866 2°52.614 0.2 34 6.6 100320 52
2011-02-14 08:05:08 51°17.882 2°52.613 0.1 23 6.6 100330 52
2011-02-14 08:05:14 51°17.904 2°52.611 -999 34 6.6 100330 52
2011-02-14 08:05:18 51°17.92 2°52.61 -999 23 6.6 100330 52
2011-02-14 08:05:24 51°17.943 2°52.607 -999 35 6.6 100330 52
2011-02-14 08:05:28 51°17.958 2°52.607 0.1 18 6.7 100330 52
2011-02-14 08:05:32 51°17.973 2°52.605 0.1 34 6.7 100330 52
2011-02-14 08:05:39 51°18 2°52.602 0.1 28 6.7 100320 52
2011-02-14 08:05:44 51°18.02 2°52.601 0.1 36 6.7 100320 52
2011-02-14 08:05:48 51°18.035 2°52.599 0.1 19 6.7 100330 52
2011-02-14 08:05:54 51°18.058 2°52.597 0.1 35 6.7 100330 52
2011-02-14 08:05:59 51°18.077 2°52.595 0.1 23 6.6 100330 51
2011-02-14 08:06:04 51°18.096 2°52.592 0.1 36 6.6 100330 51
2011-02-14 08:06:08 51°18.111 2°52.591 0.1 24 6.7 100330 52
2011-02-14 08:06:13 51°18.13 2°52.589 0.1 34 6.7 100330 52
2011-02-14 08:06:19 51°18.153 2°52.587 0.1 23 6.7 100330 52
2011-02-14 08:06:24 51°18.172 2°52.586 0.1 34 6.7 100330 52
2011-02-14 08:06:28 51°18.188 2°52.584 0.1 23 6.7 100320 52
2011-02-14 08:06:33 51°18.207 2°52.582 0.1 36 6.7 100320 52
2011-02-14 08:06:39 51°18.23 2°52.581 0.1 18 6.7 100330 52
2011-02-14 08:06:44 51°18.249 2°52.579 0.1 34 6.7 100330 52
2011-02-14 08:06:48 51°18.264 2°52.578 0.1 23 6.7 100330 51
2011-02-14 08:06:53 51°18.283 2°52.575 0.1 36 6.7 100330 51
2011-02-14 08:06:58 51°18.303 2°52.574 0.1 19 6.7 100330 52
2011-02-14 08:07:04 51°18.325 2°52.572 0.3 315 6.7 100330 52
2011-02-14 08:07:08 51°18.341 2°52.571 0.2 23 6.7 100320 51
2011-02-14 08:07:14 51°18.364 2°52.569 0.1 33 6.7 100320 51
2011-02-14 08:07:19 51°18.383 2°52.567 0.1 26 6.7 100330 52
2011-02-14 08:07:24 51°18.402 2°52.565 0.5 38 6.7 100330 52
2011-02-14 08:07:28 51°18.417 2°52.563 0.7 20 6.7 100330 52
2011-02-14 08:07:33 51°18.436 2°52.561 0.7 34 6.7 100330 52
2011-02-14 08:07:39 51°18.459 2°52.559 0.4 23 6.7 100330 52
2011-02-14 08:07:44 51°18.478 2°52.558 0.1 34 6.7 100330 52
2011-02-14 08:07:48 51°18.494 2°52.557 0.6 23 6.7 100330 52
2011-02-14 08:07:52 51°18.509 2°52.556 0.1 33 6.7 100330 52
2011-02-14 08:07:58 51°18.532 2°52.553 1.1 27 6.7 100320 52
2011-02-14 08:08:04 51°18.555 2°52.551 0.8 32 6.7 100320 52
2011-02-14 08:08:08 51°18.57 2°52.55 0.9 21 6.7 100330 52
2011-02-14 08:08:13 51°18.589 2°52.548 0.6 38 6.7 100330 52
2011-02-14 08:08:18 51°18.609 2°52.546 0.3 20 6.7 100330 53
2011-02-14 08:08:24 51°18.631 2°52.544 0.3 34 6.7 100330 53
2011-02-14 08:08:28 51°18.647 2°52.543 0.3 22 6.7 100320 52
2011-02-14 08:08:34 51°18.67 2°52.54 0.6 32 6.7 100320 52
2011-02-14 08:08:38 51°18.685 2°52.539 0.3 22 6.7 100330 52
2011-02-14 08:08:43 51°18.704 2°52.538 0.2 236 6.7 100330 52
2011-02-14 08:08:48 51°18.723 2°52.536 0.2 28 6.7 100330 52
2011-02-14 08:08:53 51°18.742 2°52.535 0.3 34 6.7 100330 52
2011-02-14 08:08:58 51°18.761 2°52.533 0.3 23 6.7 100330 52
2011-02-14 08:09:04 51°18.784 2°52.531 0.1 33 6.7 100330 52
2011-02-14 08:09:08 51°18.799 2°52.53 0.1 22 6.7 100320 52
2011-02-14 08:09:14 51°18.822 2°52.527 1 35 6.7 100320 52
2011-02-14 08:09:19 51°18.842 2°52.525 1.2 21 6.7 100330 52
2011-02-14 08:09:24 51°18.861 2°52.524 0.6 234 6.7 100330 52
2011-02-14 08:09:28 51°18.876 2°52.522 0.6 28 6.7 100320 52
2011-02-14 08:09:34 51°18.899 2°52.521 1 31 6.7 100320 52
2011-02-14 08:09:39 51°18.918 2°52.518 1.1 21 6.7 100320 52
2011-02-14 08:09:44 51°18.937 2°52.517 0.2 34 6.7 100320 52
2011-02-14 08:09:48 51°18.952 2°52.516 0.8 23 6.7 100320 52
2011-02-14 08:09:53 51°18.971 2°52.515 0.2 34 6.7 100320 52
2011-02-14 08:09:59 51°18.995 2°52.513 0.1 22 6.7 100330 51
2011-02-14 08:10:04 51°19.014 2°52.512 0.3 240 6.7 100330 51
2011-02-14 08:10:08 51°19.029 2°52.51 0.4 23 6.7 100330 52
2011-02-14 08:10:12 51°19.045 2°52.509 0.9 240 6.7 100330 52
2011-02-14 08:10:18 51°19.068 2°52.506 1 21 6.7 100320 52
2011-02-14 08:10:24 51°19.091 2°52.505 0.2 238 6.7 100320 52
2011-02-14 08:10:28 51°19.106 2°52.503 0.1 22 6.7 100330 52
2011-02-14 08:10:33 51°19.125 2°52.501 1.3 238 6.7 100330 52
2011-02-14 08:10:38 51°19.144 2°52.497 1.3 27 6.7 100320 52
2011-02-14 08:10:44 51°19.167 2°52.493 1.3 241 6.7 100320 52
2011-02-14 08:10:48 51°19.182 2°52.49 0.9 22 6.7 100320 52
2011-02-14 08:10:54 51°19.205 2°52.489 0.2 237 6.7 100320 52
2011-02-14 08:10:59 51°19.224 2°52.488 1.1 22 6.7 100320 52
2011-02-14 08:11:03 51°19.239 2°52.488 0.7 31 6.7 100320 52
2011-02-14 08:11:08 51°19.259 2°52.488 0.2 21 6.7 100330 52
2011-02-14 08:11:13 51°19.278 2°52.488 0.1 34 6.7 100330 52
2011-02-14 08:11:18 51°19.297 2°52.489 0.1 28 6.7 100330 53
2011-02-14 08:11:24 51°19.32 2°52.491 0.1 241 6.7 100330 53
2011-02-14 08:11:28 51°19.336 2°52.492 0.1 315 6.7 100320 52
2011-02-14 08:11:34 51°19.359 2°52.493 0.1 34 6.7 100320 52
2011-02-14 08:11:39 51°19.378 2°52.494 0.1 23 6.7 100320 52
2011-02-14 08:11:44 51°19.398 2°52.492 1.3 33 6.7 100320 52
2011-02-14 08:11:48 51°19.413 2°52.49 1.4 27 6.7 100330 52
2011-02-14 08:11:54 51°19.435 2°52.485 2.6 238 6.7 100330 52
2011-02-14 08:11:59 51°19.454 2°52.479 2.6 19 6.7 100330 52
2011-02-14 08:12:04 51°19.472 2°52.474 3.3 245 6.7 100330 52
2011-02-14 08:12:08 51°19.487 2°52.468 2.7 20 6.7 100330 50
2011-02-14 08:12:13 51°19.506 2°52.461 2.7 242 6.7 100330 50
2011-02-14 08:12:19 51°19.527 2°52.451 3.3 20 6.7 100320 51
2011-02-14 08:12:24 51°19.545 2°52.444 2.9 242 6.7 100320 51
2011-02-14 08:12:28 51°19.56 2°52.438 3.4 23 6.7 100330 53
2011-02-14 08:12:34 51°19.582 2°52.429 3.1 243 6.7 100330 53
2011-02-14 08:12:38 51°19.597 2°52.423 3 26 6.7 100330 52
2011-02-14 08:12:44 51°19.619 2°52.413 3.2 239 6.7 100330 52
2011-02-14 08:12:48 51°19.633 2°52.407 2.9 23 6.7 100320 52
2011-02-14 08:12:53 51°19.652 2°52.399 3.9 240 6.7 100320 52
2011-02-14 08:12:58 51°19.67 2°52.393 3.6 21 6.7 100320 53
2011-02-14 08:13:04 51°19.692 2°52.383 4.8 238 6.7 100320 53
2011-02-14 08:13:08 51°19.707 2°52.377 4.8 22 6.7 100320 51
2011-02-14 08:13:14 51°19.728 2°52.365 4.3 244 6.7 100320 51
2011-02-14 08:13:19 51°19.746 2°52.356 3.4 20 6.7 100320 52
2011-02-14 08:13:24 51°19.764 2°52.346 5.1 245 6.7 100320 52
2011-02-14 08:13:28 51°19.778 2°52.338 4.8 22 6.7 100320 53
2011-02-14 08:13:34 51°19.799 2°52.327 5.2 240 6.7 100320 53
2011-02-14 08:13:39 51°19.817 2°52.317 4.9 25 6.7 100320 52
2011-02-14 08:13:44 51°19.835 2°52.308 3.9 244 6.7 100320 52
2011-02-14 08:13:48 51°19.849 2°52.3 3.7 27 6.7 100320 52
2011-02-14 08:13:53 51°19.867 2°52.291 4.6 240 6.7 100320 52
2011-02-14 08:13:59 51°19.888 2°52.28 3.6 25 6.7 100320 53
2011-02-14 08:14:04 51°19.907 2°52.27 4.1 241 6.7 100320 53
2011-02-14 08:14:08 51°19.921 2°52.263 3.9 20 6.7 100320 52
2011-02-14 08:14:13 51°19.939 2°52.254 4.9 240 6.7 100320 52
2011-02-14 08:14:19 51°19.96 2°52.243 3.8 24 6.8 100320 53
2011-02-14 08:14:24 51°19.978 2°52.233 4.9 243 6.8 100320 53
2011-02-14 08:14:28 51°19.992 2°52.226 5 21 6.7 100320 53
2011-02-14 08:14:33 51°20.01 2°52.216 3.6 243 6.7 100320 53
2011-02-14 08:14:38 51°20.028 2°52.206 4 27 6.7 100320 51
2011-02-14 08:14:44 51°20.049 2°52.195 4.5 242 6.7 100320 51
2011-02-14 08:14:48 51°20.063 2°52.187 3.9 24 6.7 100320 52
2011-02-14 08:14:54 51°20.084 2°52.176 4.5 245 6.7 100320 52
2011-02-14 08:14:59 51°20.102 2°52.166 4.7 23 6.7 100320 52
2011-02-14 08:15:04 51°20.12 2°52.156 2.9 247 6.7 100320 52
2011-02-14 08:15:08 51°20.134 2°52.149 4.4 25 6.7 100320 51
2011-02-14 08:15:13 51°20.152 2°52.14 4.8 245 6.7 100320 51
2011-02-14 08:15:19 51°20.173 2°52.128 4.9 22 6.7 100310 53
2011-02-14 08:15:24 51°20.19 2°52.119 4.8 248 6.7 100310 53
2011-02-14 08:15:28 51°20.204 2°52.112 4.6 22 6.7 100320 52
2011-02-14 08:15:34 51°20.224 2°52.102 4.9 245 6.7 100320 52
2011-02-14 08:15:39 51°20.239 2°52.094 3.9 247 6.7 100320 53
2011-02-14 08:15:44 51°20.255 2°52.086 4 246 6.7 100320 53
2011-02-14 08:15:48 51°20.268 2°52.081 4.6 20 6.8 100320 51
2011-02-14 08:15:53 51°20.283 2°52.073 4.7 253 6.8 100320 51
2011-02-14 08:15:58 51°20.298 2°52.066 4.7 252 6.8 100320 51
2011-02-14 08:16:04 51°20.316 2°52.057 3.7 251 6.8 100320 51
2011-02-14 08:16:08 51°20.327 2°52.052 3.8 252 6.8 100320 52
2011-02-14 08:16:14 51°20.345 2°52.043 3.5 250 6.8 100320 52
2011-02-14 08:16:19 51°20.359 2°52.036 4.3 251 6.8 100320 52
2011-02-14 08:16:24 51°20.373 2°52.029 4.3 249 6.8 100320 52
2011-02-14 08:16:28 51°20.385 2°52.023 3.4 249 6.8 100310 53
2011-02-14 08:16:34 51°20.401 2°52.015 4.1 249 6.8 100310 53
2011-02-14 08:16:39 51°20.415 2°52.008 3.8 252 6.8 100320 51
2011-02-14 08:16:44 51°20.43 2°52.001 4.6 254 6.8 100320 51
2011-02-14 08:16:48 51°20.441 2°51.995 4.1 255 6.8 100310 53
2011-02-14 08:16:53 51°20.455 2°51.989 4.2 255 6.8 100310 53
2011-02-14 08:16:59 51°20.472 2°51.982 3.8 253 6.8 100320 52
2011-02-14 08:17:04 51°20.487 2°51.975 3.3 254 6.8 100320 52
2011-02-14 08:17:08 51°20.498 2°51.97 3.3 255 6.8 100320 51
2011-02-14 08:17:13 51°20.512 2°51.964 2 253 6.8 100320 51
2011-02-14 08:17:19 51°20.529 2°51.957 4.9 255 6.8 100320 51
2011-02-14 08:17:24 51°20.543 2°51.951 3.7 254 6.8 100320 51
2011-02-14 08:17:28 51°20.554 2°51.945 3.6 252 6.8 100320 50
2011-02-14 08:17:33 51°20.567 2°51.939 3.8 255 6.8 100320 50
2011-02-14 08:17:38 51°20.58 2°51.932 3.5 252 6.8 100320 52
2011-02-14 08:17:43 51°20.592 2°51.924 3.8 249 6.8 100320 52
2011-02-14 08:17:48 51°20.604 2°51.918 4.8 251 6.8 100320 51
2011-02-14 08:17:54 51°20.618 2°51.91 5.5 255 6.8 100320 51
2011-02-14 08:17:59 51°20.629 2°51.903 5.4 255 6.8 100320 53
2011-02-14 08:18:04 51°20.64 2°51.895 3.9 254 6.8 100320 53
2011-02-14 08:18:08 51°20.649 2°51.89 5.1 253 6.8 100320 53
2011-02-14 08:18:13 51°20.66 2°51.883 4.6 258 6.8 100320 53
2011-02-14 08:18:19 51°20.673 2°51.875 4.6 255 6.7 100320 53
2011-02-14 08:18:24 51°20.684 2°51.868 5.3 255 6.7 100320 53
2011-02-14 08:18:28 51°20.693 2°51.863 4.2 259 6.8 100320 53
2011-02-14 08:18:34 51°20.706 2°51.855 4.1 254 6.8 100320 53
2011-02-14 08:18:39 51°20.717 2°51.849 4.3 258 6.7 100320 51
2011-02-14 08:18:44 51°20.728 2°51.842 3 253 6.7 100320 51
2011-02-14 08:18:48 51°20.737 2°51.837 4.5 255 6.8 100310 51
2011-02-14 08:18:54 51°20.75 2°51.83 4 257 6.8 100310 51
2011-02-14 08:18:58 51°20.759 2°51.826 4.1 258 6.7 100320 53
2011-02-14 08:19:04 51°20.772 2°51.819 2.9 255 6.7 100320 53
2011-02-14 08:19:08 51°20.781 2°51.814 2.1 254 6.7 100320 51
2011-02-14 08:19:14 51°20.794 2°51.807 4.3 254 6.7 100320 51
2011-02-14 08:19:18 51°20.802 2°51.803 4 253 6.8 100310 53
2011-02-14 08:19:24 51°20.815 2°51.795 4.8 256 6.8 100310 53
2011-02-14 08:19:28 51°20.824 2°51.791 4.6 256 6.8 100320 51
2011-02-14 08:19:34 51°20.837 2°51.784 4.3 256 6.8 100320 51
2011-02-14 08:19:38 51°20.846 2°51.779 4.1 254 6.7 100320 53
2011-02-14 08:19:44 51°20.858 2°51.771 5 255 6.7 100320 53
2011-02-14 08:19:48 51°20.866 2°51.766 4.2 253 6.8 100320 52
2011-02-14 08:19:53 51°20.877 2°51.759 4.4 255 6.8 100320 52
2011-02-14 08:19:59 51°20.89 2°51.751 4.4 253 6.8 100310 51
2011-02-14 08:20:04 51°20.9 2°51.744 5.1 252 6.8 100310 51
2011-02-14 08:20:08 51°20.908 2°51.738 5.4 19 6.8 100320 50
2011-02-14 08:20:13 51°20.918 2°51.731 5.3 251 6.8 100320 50
2011-02-14 08:20:19 51°20.93 2°51.721 5.5 18 6.8 100320 52
2011-02-14 08:20:24 51°20.94 2°51.713 5.2 252 6.8 100320 52
2011-02-14 08:20:28 51°20.948 2°51.707 5.5 252 6.8 100320 51
2011-02-14 08:20:33 51°20.958 2°51.699 5.5 253 6.8 100320 51
2011-02-14 08:20:38 51°20.967 2°51.691 4.6 250 6.8 100310 53
2011-02-14 08:20:44 51°20.979 2°51.681 4.5 248 6.8 100310 53
2011-02-14 08:20:48 51°20.986 2°51.675 4.6 252 6.8 100320 51
2011-02-14 08:20:54 51°20.999 2°51.664 5.3 252 6.8 100320 51
2011-02-14 08:20:59 51°21.01 2°51.655 5.2 248 6.8 100320 53
2011-02-14 08:21:04 51°21.021 2°51.645 4.1 245 6.8 100320 53
2011-02-14 08:21:08 51°21.03 2°51.636 5.1 248 6.7 100320 52
2011-02-14 08:21:13 51°21.042 2°51.625 5.8 245 6.7 100320 52
2011-02-14 08:21:19 51°21.058 2°51.611 5.9 243 6.8 100320 52
2011-02-14 08:21:24 51°21.071 2°51.598 5.7 241 6.8 100320 52
2011-02-14 08:21:28 51°21.082 2°51.588 4.8 28 6.7 100310 51
2011-02-14 08:21:34 51°21.098 2°51.572 4.8 245 6.7 100310 51
2011-02-14 08:21:39 51°21.112 2°51.558 5.1 19 6.7 100310 51
2011-02-14 08:21:44 51°21.127 2°51.544 5.7 241 6.7 100310 51
2011-02-14 08:21:48 51°21.139 2°51.532 4.6 24 6.7 100320 51
2011-02-14 08:21:53 51°21.154 2°51.517 2.6 240 6.7 100320 51
2011-02-14 08:21:58 51°21.169 2°51.503 4.7 19 6.8 100310 53
2011-02-14 08:22:04 51°21.187 2°51.485 5.6 238 6.8 100310 53
2011-02-14 08:22:08 51°21.2 2°51.474 5.2 24 6.8 100310 53
2011-02-14 08:22:14 51°21.218 2°51.456 4.9 237 6.8 100310 53
2011-02-14 08:22:19 51°21.233 2°51.441 5.9 25 6.7 100310 53
2011-02-14 08:22:24 51°21.249 2°51.428 5.2 241 6.7 100310 53
2011-02-14 08:22:28 51°21.262 2°51.417 5.8 21 6.7 100310 51
2011-02-14 08:22:34 51°21.282 2°51.402 5 239 6.7 100310 51
2011-02-14 08:22:39 51°21.298 2°51.389 4.6 27 6.7 100320 51
2011-02-14 08:22:44 51°21.315 2°51.376 4.8 241 6.7 100320 51
2011-02-14 08:22:48 51°21.328 2°51.367 4.6 22 6.8 100310 52
2011-02-14 08:22:53 51°21.345 2°51.354 2.6 239 6.8 100310 52
2011-02-14 08:22:59 51°21.365 2°51.34 4.7 20 6.8 100310 51
2011-02-14 08:23:04 51°21.382 2°51.328 4.7 32 6.8 100310 51
2011-02-14 08:23:08 51°21.396 2°51.319 4.3 27 6.7 100310 52
2011-02-14 08:23:13 51°21.413 2°51.308 5.2 238 6.7 100310 52
2011-02-14 08:23:19 51°21.434 2°51.295 3.9 24 6.7 100310 52
2011-02-14 08:23:24 51°21.451 2°51.286 4.1 243 6.7 100310 52
2011-02-14 08:23:28 51°21.465 2°51.278 3.7 26 6.7 100310 51
2011-02-14 08:23:33 51°21.483 2°51.27 3.7 243 6.7 100310 51
2011-02-14 08:23:38 51°21.501 2°51.263 3.7 21 6.7 100320 52
2011-02-14 08:23:44 51°21.523 2°51.254 2.8 243 6.7 100320 52
2011-02-14 08:23:48 51°21.538 2°51.25 2.9 21 6.7 100320 53
2011-02-14 08:23:54 51°21.56 2°51.245 2.5 32 6.7 100320 53
2011-02-14 08:23:58 51°21.575 2°51.244 2.9 21 6.8 100310 53
2011-02-14 08:24:04 51°21.598 2°51.243 1.8 245 6.8 100310 53
2011-02-14 08:24:08 51°21.613 2°51.243 1.5 24 6.8 100320 51
2011-02-14 08:24:13 51°21.632 2°51.245 1.4 244 6.8 100320 51
2011-02-14 08:24:19 51°21.655 2°51.247 1 26 6.7 100320 53
2011-02-14 08:24:24 51°21.674 2°51.25 1.3 238 6.7 100320 53
2011-02-14 08:24:28 51°21.689 2°51.252 1.1 23 6.8 100320 52
2011-02-14 08:24:34 51°21.712 2°51.256 0.8 243 6.8 100320 52
2011-02-14 08:24:39 51°21.731 2°51.261 0.7 24 6.7 100320 52
2011-02-14 08:24:44 51°21.749 2°51.264 0.8 242 6.7 100320 52
2011-02-14 08:24:48 51°21.765 2°51.267 0.6 27 6.8 100320 52
2011-02-14 08:24:53 51°21.783 2°51.269 1.1 241 6.8 100320 52
2011-02-14 08:24:58 51°21.803 2°51.273 1.3 22 6.8 100330 52
2011-02-14 08:25:04 51°21.825 2°51.274 1.8 240 6.8 100330 52
2011-02-14 08:25:08 51°21.84 2°51.276 0.6 247 6.7 100320 52
2011-02-14 08:25:14 51°21.863 2°51.279 1 243 6.7 100320 52
2011-02-14 08:25:19 51°21.882 2°51.28 1.1 23 6.7 100320 52
2011-02-14 08:25:24 51°21.901 2°51.282 0.1 244 6.7 100320 52
2011-02-14 08:25:28 51°21.916 2°51.284 0.3 21 6.8 100320 52
2011-02-14 08:25:33 51°21.935 2°51.287 0.9 32 6.8 100320 52
2011-02-14 08:25:39 51°21.958 2°51.288 0.8 21 6.8 100330 52
2011-02-14 08:25:44 51°21.977 2°51.291 0.2 239 6.8 100330 52
2011-02-14 08:25:48 51°21.992 2°51.294 0.2 19 6.7 100320 52
2011-02-14 08:25:53 51°22.011 2°51.297 0.1 244 6.7 100320 52
2011-02-14 08:25:59 51°22.034 2°51.302 0.1 245 6.8 100320 51
2011-02-14 08:26:04 51°22.053 2°51.307 0.1 244 6.8 100320 51
2011-02-14 08:26:08 51°22.068 2°51.311 0.1 20 6.8 100320 52
2011-02-14 08:26:13 51°22.087 2°51.315 0.1 248 6.8 100320 52
2011-02-14 08:26:18 51°22.106 2°51.319 0.1 248 6.8 100330 52
2011-02-14 08:26:23 51°22.125 2°51.324 -999 243 6.8 100330 52
2011-02-14 08:26:28 51°22.143 2°51.328 -999 245 6.8 100320 52
2011-02-14 08:26:34 51°22.166 2°51.334 0.6 246 6.8 100320 52
2011-02-14 08:26:39 51°22.185 2°51.337 0.7 19 6.8 100330 52
2011-02-14 08:26:44 51°22.204 2°51.342 0.2 248 6.8 100330 52
2011-02-14 08:26:48 51°22.219 2°51.345 0.2 21 6.7 100330 52
2011-02-14 08:26:53 51°22.238 2°51.349 0.1 245 6.7 100330 52
2011-02-14 08:26:59 51°22.261 2°51.354 0.1 23 6.8 100330 51
2011-02-14 08:27:04 51°22.28 2°51.357 1.3 242 6.8 100330 51
2011-02-14 08:27:08 51°22.295 2°51.36 0.6 23 6.8 100330 52
2011-02-14 08:27:14 51°22.318 2°51.364 1.1 248 6.8 100330 52
2011-02-14 08:27:19 51°22.336 2°51.369 0.9 243 6.8 100330 52
2011-02-14 08:27:24 51°22.355 2°51.372 0.2 247 6.8 100330 52
2011-02-14 08:27:28 51°22.371 2°51.376 0.5 250 6.8 100320 52
2011-02-14 08:27:34 51°22.393 2°51.381 0.8 247 6.8 100320 52
2011-02-14 08:27:38 51°22.408 2°51.385 0.6 22 6.8 100330 53
2011-02-14 08:27:44 51°22.431 2°51.39 0.7 243 6.8 100330 53
2011-02-14 08:27:48 51°22.446 2°51.393 0.7 18 6.8 100320 52
2011-02-14 08:27:52 51°22.461 2°51.396 0.9 251 6.8 100320 52
2011-02-14 08:27:59 51°22.488 2°51.401 0.8 249 6.8 100320 52
2011-02-14 08:28:04 51°22.507 2°51.405 0.2 243 6.8 100320 52
2011-02-14 08:28:08 51°22.522 2°51.407 1.7 20 6.8 100330 51
2011-02-14 08:28:14 51°22.545 2°51.411 1 249 6.8 100330 51
2011-02-14 08:28:19 51°22.564 2°51.414 1 248 6.8 100330 53
2011-02-14 08:28:24 51°22.583 2°51.417 1.2 249 6.8 100330 53
2011-02-14 08:28:28 51°22.598 2°51.42 1.1 247 6.8 100330 51
2011-02-14 08:28:33 51°22.617 2°51.422 1.3 253 6.8 100330 51
2011-02-14 08:28:39 51°22.64 2°51.427 1.4 19 6.8 100330 52
2011-02-14 08:28:44 51°22.659 2°51.431 0.5 250 6.8 100330 52
2011-02-14 08:28:48 51°22.674 2°51.434 0.3 257 6.8 100330 51
2011-02-14 08:28:53 51°22.694 2°51.438 1.2 251 6.8 100330 51
2011-02-14 08:28:59 51°22.717 2°51.443 0.8 21 6.8 100330 53
2011-02-14 08:29:04 51°22.736 2°51.446 1.4 248 6.8 100330 53
2011-02-14 08:29:08 51°22.751 2°51.449 0.9 248 6.8 100320 52
2011-02-14 08:29:13 51°22.77 2°51.454 0.9 246 6.8 100320 52
2011-02-14 08:29:18 51°22.789 2°51.458 1.1 250 6.8 100330 53
2011-02-14 08:29:24 51°22.812 2°51.461 1.2 250 6.8 100330 53
2011-02-14 08:29:28 51°22.827 2°51.464 0.3 28 6.8 100330 52
2011-02-14 08:29:34 51°22.85 2°51.468 1.9 248 6.8 100330 52
2011-02-14 08:29:39 51°22.869 2°51.472 1.2 246 6.8 100330 52
2011-02-14 08:29:44 51°22.888 2°51.474 2.5 244 6.8 100330 52
2011-02-14 08:29:48 51°22.903 2°51.478 1.9 19 6.8 100330 52
2011-02-14 08:29:53 51°22.922 2°51.48 2.5 245 6.8 100330 52
2011-02-14 08:29:59 51°22.945 2°51.485 1.3 22 6.8 100330 52
2011-02-14 08:30:04 51°22.964 2°51.488 0.4 247 6.8 100330 52
2011-02-14 08:30:08 51°22.979 2°51.491 0.2 249 6.8 100330 54
2011-02-14 08:30:12 51°22.994 2°51.494 0.1 251 6.8 100330 54
2011-02-14 08:30:19 51°23.021 2°51.498 -999 249 6.8 100320 52
2011-02-14 08:30:24 51°23.04 2°51.502 -999 248 6.8 100320 52
2011-02-14 08:30:28 51°23.055 2°51.503 -999 23 6.8 100330 52
2011-02-14 08:30:33 51°23.074 2°51.506 -999 249 6.8 100330 52
2011-02-14 08:30:38 51°23.093 2°51.509 -999 250 6.8 100330 52
2011-02-14 08:30:44 51°23.116 2°51.513 -999 250 6.8 100330 52
2011-02-14 08:30:48 51°23.131 2°51.516 -999 249 6.8 100330 51
2011-02-14 08:30:53 51°23.15 2°51.519 -999 250 6.8 100330 51
2011-02-14 08:30:59 51°23.173 2°51.523 -999 248 6.8 100330 52
2011-02-14 08:31:04 51°23.192 2°51.524 -999 248 6.8 100330 52
2011-02-14 08:31:08 51°23.207 2°51.528 -999 248 6.8 100330 52
2011-02-14 08:31:13 51°23.226 2°51.53 -999 252 6.8 100330 52
2011-02-14 08:31:19 51°23.249 2°51.533 -999 254 6.8 100330 52
2011-02-14 08:31:24 51°23.268 2°51.535 -999 247 6.8 100330 52
2011-02-14 08:31:28 51°23.283 2°51.538 -999 23 6.8 100320 52
2011-02-14 08:31:33 51°23.302 2°51.542 -999 248 6.8 100320 52
2011-02-14 08:31:38 51°23.321 2°51.545 -999 248 6.8 100330 52
2011-02-14 08:31:44 51°23.344 2°51.548 -999 246 6.8 100330 52
2011-02-14 08:31:48 51°23.359 2°51.551 -999 23 6.8 100330 52
2011-02-14 08:31:53 51°23.378 2°51.554 -999 245 6.8 100330 52
2011-02-14 08:31:59 51°23.401 2°51.557 -999 23 6.8 100320 52
2011-02-14 08:32:04 51°23.42 2°51.56 -999 246 6.8 100320 52
2011-02-14 08:32:08 51°23.435 2°51.563 -999 23 6.8 100330 52
2011-02-14 08:32:13 51°23.454 2°51.566 -999 255 6.8 100330 52
2011-02-14 08:32:19 51°23.477 2°51.57 -999 23 6.8 100330 52
2011-02-14 08:32:24 51°23.496 2°51.572 -999 248 6.8 100330 52
2011-02-14 08:32:28 51°23.512 2°51.574 -999 249 6.8 100330 52
2011-02-14 08:32:33 51°23.531 2°51.577 -999 246 6.8 100330 52
2011-02-14 08:32:38 51°23.55 2°51.579 -999 23 6.8 100330 52
2011-02-14 08:32:44 51°23.573 2°51.582 -999 246 6.8 100330 52
2011-02-14 08:32:48 51°23.588 2°51.585 -999 249 6.8 100330 52
2011-02-14 08:32:54 51°23.611 2°51.587 -999 241 6.8 100330 52
2011-02-14 08:32:58 51°23.626 2°51.59 -999 23 6.8 100330 52
2011-02-14 08:33:04 51°23.649 2°51.593 -999 243 6.8 100330 52
2011-02-14 08:33:08 51°23.664 2°51.595 -999 23 6.8 100330 52
2011-02-14 08:33:13 51°23.683 2°51.599 -999 253 6.8 100330 52
2011-02-14 08:33:19 51°23.706 2°51.602 0.1 18 6.8 100330 52
2011-02-14 08:33:24 51°23.725 2°51.604 0.1 251 6.8 100330 52
2011-02-14 08:33:28 51°23.74 2°51.606 0.1 249 6.8 100330 51
2011-02-14 08:33:33 51°23.76 2°51.61 -999 253 6.8 100330 51
2011-02-14 08:33:39 51°23.782 2°51.613 -999 250 6.8 100330 52
2011-02-14 08:33:44 51°23.801 2°51.616 -999 245 6.8 100330 52
2011-02-14 08:33:48 51°23.817 2°51.617 -999 23 6.8 100330 52
2011-02-14 08:33:53 51°23.836 2°51.62 -999 248 6.8 100330 52
2011-02-14 08:33:58 51°23.855 2°51.622 -999 250 6.8 100330 52
2011-02-14 08:34:04 51°23.877 2°51.625 1.4 246 6.8 100330 52
2011-02-14 08:34:08 51°23.893 2°51.627 1.7 249 6.8 100330 52
2011-02-14 08:34:12 51°23.908 2°51.629 1.5 249 6.8 100330 52
2011-02-14 08:34:19 51°23.934 2°51.633 2.2 244 6.8 100330 52
2011-02-14 08:34:24 51°23.953 2°51.636 2.3 252 6.8 100330 52
2011-02-14 08:34:28 51°23.969 2°51.638 3.1 255 6.8 100330 53
2011-02-14 08:34:33 51°23.988 2°51.641 1 251 6.8 100330 53
2011-02-14 08:34:39 51°24.01 2°51.644 1.2 246 6.8 100330 53
2011-02-14 08:34:44 51°24.03 2°51.646 0.8 244 6.8 100330 53
2011-02-14 08:34:48 51°24.045 2°51.649 1.2 250 6.8 100330 51
2011-02-14 08:34:54 51°24.067 2°51.652 1 251 6.8 100330 51
2011-02-14 08:34:59 51°24.086 2°51.656 0.7 252 6.8 100330 52
2011-02-14 08:35:04 51°24.105 2°51.661 0.1 244 6.8 100330 52
2011-02-14 08:35:08 51°24.12 2°51.664 0.1 18 6.8 100330 52
2011-02-14 08:35:13 51°24.139 2°51.671 0.1 246 6.8 100330 52
2011-02-14 08:35:19 51°24.162 2°51.677 0.1 247 6.8 100330 52
2011-02-14 08:35:24 51°24.18 2°51.683 0.1 249 6.8 100330 52
2011-02-14 08:35:28 51°24.195 2°51.688 0.1 256 6.8 100330 52
2011-02-14 08:35:33 51°24.214 2°51.694 0.1 247 6.8 100330 52